Anniston, AL

8:10 PM CST on November 16, 2019 (GMT -0600)
Anniston Metro

Weather History for KANB - September, 2019

Change the Weather History Date:

Saturday, September 21, 2019

  Actual Average Record
Temperature  
Mean Temperature 75 °F 72 °F  
Max Temperature 89 °F 83 °F 97 °F (1955)
Min Temperature 61 °F 61 °F 40 °F (1903)
Degree Days  
Heating Degree Days 0    
Month to date heating degree days 0  
Since 1 July heating degree days 0  
Cooling Degree Days 10    
Growing Degree Days 26 (Base 50)    
Moisture  
Dew Point 58 °F    
Average Humidity 59    
Maximum Humidity 84    
Minimum Humidity 34    
Precipitation  
Precipitation 0.00 in 0.09 in 3.99 in (1995)
Month to date precipitation 0.42 2.04  
Year to date precipitation 39.59 36.96  
Sea Level Pressure  
Sea Level Pressure 30.22 in    
Wind  
Wind Speed 5 mph (ENE)    
Max Wind Speed 10 mph    
Max Gust Speed 12 mph    
Visibility 10 miles    
Events      
T = Trace of Precipitation, MM = Missing Value Source: NWS Daily Summary

Daily Weather History Graph

Daily Weather History Graph

Search for Another Location

Airport or City:

Astronomy

Sep. 21, 2019 Rise Set
Actual Time 6:30 AM CDT 6:41 PM CDT
Civil Twilight 6:05 AM CDT 7:06 PM CDT
Nautical Twilight 5:36 AM CDT 7:35 PM CDT
Astronomical Twilight 5:07 AM CDT 8:04 PM CDT
Moon 11:37 PM CDT (9/21) 1:17 PM CDT (9/21)
Length of Visible Light 13h 00m
Length of Day
12h 11m
Waning Gibbous, 54% of the Moon is Illuminated
Sep 21
Waning Gibbous
Sep 21
Last Quarter
Sep 28
New
Oct 5
First Quarter
Oct 13
Full

Hourly Weather History & Observations

Time (CDT) Temp. Heat Index Dew Point Humidity Pressure Visibility Wind Dir Wind Speed Gust Speed Precip Events Conditions
12:53 AM 63.0 °F - 57.0 °F 81% 30.24 in 10.0 mi NE 4.6 mph - N/A   Clear
1:53 AM 62.1 °F - 57.0 °F 84% 30.24 in 10.0 mi NE 4.6 mph - N/A   Clear
2:53 AM 63.0 °F - 54.0 °F 72% 30.24 in 9.0 mi NNE 6.9 mph - N/A   Clear
3:53 AM 64.0 °F - 53.1 °F 67% 30.24 in 10.0 mi NE 5.8 mph - N/A   Clear
5:53 AM 63.0 °F - 54.0 °F 72% 30.27 in 10.0 mi NE 6.9 mph - N/A   Clear
6:53 AM 63.0 °F - 54.0 °F 72% 30.29 in 10.0 mi NE 6.9 mph - N/A   Clear
7:53 AM 66.9 °F - 57.0 °F 70% 30.31 in 10.0 mi East 5.8 mph - N/A   Clear
8:53 AM 71.1 °F - 60.1 °F 68% 30.31 in 10.0 mi ENE 6.9 mph - N/A   Clear
9:53 AM 78.1 °F - 62.1 °F 58% 30.30 in 10.0 mi Variable 3.5 mph - N/A   Clear
10:53 AM 80.1 °F 81.2 °F 62.1 °F 54% 30.28 in 10.0 mi SW 4.6 mph - N/A   Partly Cloudy
11:53 AM 82.9 °F 83.2 °F 60.1 °F 46% 30.27 in 10.0 mi NW 5.8 mph - N/A   Mostly Cloudy
12:53 PM 84.0 °F 83.3 °F 57.0 °F 40% 30.23 in 10.0 mi ESE 6.9 mph - N/A   Scattered Clouds
1:53 PM 86.0 °F 85.4 °F 59.0 °F 40% 30.21 in 10.0 mi NE 5.8 mph - N/A   Mostly Cloudy
2:53 PM 87.1 °F 86.1 °F 57.9 °F 37% 30.18 in 10.0 mi ENE 8.1 mph - N/A   Mostly Cloudy
3:53 PM 89.1 °F 87.7 °F 57.0 °F 34% 30.15 in 10.0 mi East 8.1 mph - N/A   Clear
4:53 PM 87.1 °F 85.9 °F 57.0 °F 36% 30.14 in 10.0 mi East 5.8 mph - N/A   Clear
5:53 PM 84.9 °F 83.9 °F 57.0 °F 38% 30.15 in 10.0 mi SE 5.8 mph - N/A   Clear
6:53 PM 77.0 °F - 59.0 °F 54% 30.16 in 10.0 mi SE 3.5 mph - N/A   Clear
7:53 PM 75.0 °F - 61.0 °F 62% 30.17 in 10.0 mi Calm Calm - N/A   Clear
8:53 PM 71.1 °F - 60.1 °F 68% 30.19 in 10.0 mi Calm Calm - N/A   Clear
9:53 PM 66.9 °F - 60.1 °F 79% 30.20 in 10.0 mi Calm Calm - N/A   Clear
10:53 PM 68.0 °F - 59.0 °F 73% 30.19 in 10.0 mi NNE 4.6 mph - N/A   Scattered Clouds
11:53 PM 66.9 °F - 61.0 °F 81% 30.18 in 10.0 mi ENE 3.5 mph - N/A   Scattered Clouds